FW2402 Weather Reports


time (UTC)temp
C
wind
direction
speed
KPH
gust
KPH
rain 1hr
cm
rain 24hr
cm
rain mn
cm
humidity
%
barometer
mb
20260504081540 14 0 0.0 0.0 0.00 0.00 0.00 92 1015.4
20260504081021 14 0 0.0 0.0 0.00 0.00 0.00 92 1015.4
20260504080518 14 0 0.0 0.0 0.00 0.00 0.00 92 1015.5
20260504050518 16 0 0.0 0.0 0.00 0.00 0.00 85 1016.5
20260504045517 16 0 0.0 0.0 0.00 0.00 0.00 84 1016.5
20260504045017 17 0 0.0 0.0 0.00 0.00 0.00 84 1016.8
20260504044537 17 0 0.0 0.0 0.00 0.00 0.00 83 1016.8
20260504044017 17 0 0.0 0.0 0.00 0.00 0.00 82 1016.8
20260504043526 17 0 0.0 0.0 0.00 0.00 0.00 82 1016.8
20260504043039 17 0 0.0 0.0 0.00 0.00 0.00 81 1017.0
20260504042516 17 0 0.0 0.0 0.00 0.00 0.00 79 1017.0
20260504042017 18 0 0.0 0.0 0.00 0.00 0.00 78 1016.9
20260504041534 18 0 0.0 0.0 0.00 0.00 0.00 77 1016.9
20260504041017 18 0 0.0 3.2 0.00 0.00 0.00 76 1016.7
20260504040518 18 0 0.0 3.2 0.00 0.00 0.00 76 1017.0
20260504040035 18 80 1.6 4.8 0.00 0.00 0.00 76 1016.9
20260504035521 18 81 0.0 6.4 0.00 0.00 0.00 76 1016.9
20260504035018 18 0 0.0 6.4 0.00 0.00 0.00 75 1017.0
20260504034553 18 84 1.6 4.8 0.00 0.00 0.00 75 1017.0
20260504034017 18 81 1.6 4.8 0.00 0.00 0.00 75 1016.9
20260504033517 19 39 1.6 6.4 0.00 0.00 0.00 74 1016.9
20260504033050 19 63 1.6 6.4 0.00 0.00 0.00 74 1016.9
20260504032517 19 52 1.6 9.7 0.00 0.00 0.00 74 1017.0
20260504032018 19 72 3.2 9.7 0.00 0.00 0.00 74 1016.8
20260504031532 19 59 3.2 11.3 0.00 0.00 0.00 74 1016.9
20260504031017 19 89 3.2 11.3 0.00 0.00 0.00 73 1016.8
20260504030518 19 77 3.2 9.7 0.00 0.00 0.00 73 1016.9
20260504030043 19 69 3.2 8.0 0.00 0.00 0.00 73 1016.7
20260504025517 19 67 4.8 8.0 0.00 0.00 0.00 73 1016.6
20260504025018 19 57 3.2 11.3 0.00 0.00 0.00 73 1016.7
20260504024542 19 46 3.2 11.3 0.00 0.00 0.00 72 1016.7
20260504024017 20 78 4.8 11.3 0.00 0.00 0.00 72 1016.6
20260504023517 20 97 4.8 9.7 0.00 0.00 0.00 72 1016.6
20260504023036 20 55 4.8 11.3 0.00 0.00 0.00 72 1016.6
20260504022521 20 58 6.4 12.9 0.00 0.00 0.00 72 1016.6
20260504022017 20 74 6.4 12.9 0.00 0.00 0.00 71 1016.6
20260504021543 20 93 8.0 12.9 0.00 0.00 0.00 71 1016.4
20260504021017 20 63 6.4 16.1 0.00 0.00 0.00 71 1016.5
20260504020517 20 69 6.4 16.1 0.00 0.00 0.00 71 1016.5
20260504020032 20 92 8.0 16.1 0.00 0.00 0.00 71 1016.4
20260504015517 20 73 4.8 14.5 0.00 0.00 0.00 70 1016.3
20260504015019 20 65 6.4 16.1 0.00 0.00 0.00 70 1016.3
20260504014539 20 67 9.7 17.7 0.00 0.00 0.00 70 1016.2
20260504014022 20 54 8.0 17.7 0.00 0.00 0.00 69 1016.2
20260504013519 20 66 9.7 17.7 0.00 0.00 0.00 69 1016.1
20260504013038 20 54 6.4 14.5 0.00 0.00 0.00 69 1016.0
20260504012517 20 68 4.8 14.5 0.00 0.00 0.00 68 1015.9
20260504012020 20 60 6.4 16.1 0.00 0.00 0.00 68 1015.8
20260504011535 21 48 8.0 17.7 0.00 0.00 0.00 67 1015.8
20260504011016 21 82 8.0 17.7 0.00 0.00 0.00 67 1015.7
20260504010516 21 59 8.0 17.7 0.00 0.00 0.00 67 1015.7
20260504010031 21 72 8.0 19.3 0.00 0.00 0.00 66 1015.6
20260504005517 21 49 6.4 19.3 0.00 0.00 0.00 65 1015.6
20260504005017 21 64 9.7 19.3 0.00 0.00 0.00 64 1015.6
20260504004541 21 92 8.0 17.7 0.00 0.00 0.00 64 1015.5
20260504004018 21 76 6.4 16.1 0.00 0.00 0.00 63 1015.5
20260504003518 21 61 6.4 16.1 0.00 0.00 0.00 63 1015.6
20260504003042 21 64 6.4 16.1 0.00 0.00 0.00 62 1015.6
20260504002516 22 34 4.8 11.3 0.00 0.00 0.00 61 1015.6
20260504002017 22 67 4.8 11.3 0.00 0.00 0.00 61 1015.4
20260504001536 22 59 4.8 12.9 0.00 0.00 0.00 61 1015.3
20260504001019 22 55 4.8 12.9 0.00 0.00 0.00 60 1015.2
20260504000517 22 22 4.8 14.5 0.00 0.00 0.00 60 1015.2
20260504000042 22 82 6.4 14.5 0.00 0.00 0.00 59 1015.1
20260503235517 23 71 4.8 9.7 0.00 0.00 0.00 58 1015.0
20260503235017 23 76 4.8 12.9 0.00 0.00 0.00 57 1014.9
20260503234535 23 35 4.8 12.9 0.00 0.00 0.00 57 1014.9
20260503234017 23 85 8.0 17.7 0.00 0.00 0.00 56 1014.9
20260503233517 23 42 6.4 17.7 0.00 0.00 0.00 56 1014.9
20260503233038 24 71 8.0 17.7 0.00 0.00 0.00 54 1014.9
20260503232516 24 63 9.7 16.1 0.00 0.00 0.00 54 1014.9
20260503232016 25 61 6.4 14.5 0.00 0.00 0.00 52 1014.8
20260503231531 25 59 6.4 17.7 0.00 0.00 0.00 52 1014.7
20260503231019 25 46 4.8 17.7 0.00 0.00 0.00 52 1014.7
20260503230517 25 46 8.0 17.7 0.00 0.00 0.00 51 1014.7
20260503230038 25 47 8.0 14.5 0.00 0.00 0.00 51 1014.7
20260503225516 25 28 8.0 14.5 0.00 0.00 0.00 51 1014.6
20260503225021 25 13 4.8 14.5 0.00 0.00 0.00 51 1014.7
20260503224536 26 74 4.8 12.9 0.00 0.00 0.00 50 1014.7
20260503224017 25 85 8.0 17.7 0.00 0.00 0.00 50 1014.7
20260503223517 26 80 9.7 17.7 0.00 0.00 0.00 48 1014.7
20260503223036 27 80 1.6 14.5 0.00 0.00 0.00 47 1014.8
20260503222516 26 84 6.4 14.5 0.00 0.00 0.00 49 1014.8
20260503222016 26 37 6.4 16.1 0.00 0.00 0.00 47 1014.8
20260503221538 26 71 4.8 16.1 0.00 0.00 0.00 50 1014.9
20260503221018 26 86 9.7 16.1 0.00 0.00 0.00 50 1014.8
20260503220517 26 71 4.8 12.9 0.00 0.00 0.00 49 1014.7
20260503220043 25 113 6.4 11.3 0.00 0.00 0.00 50 1014.7
20260503215517 26 57 3.2 16.1 0.00 0.00 0.00 50 1014.8
20260503215016 26 82 6.4 16.1 0.00 0.00 0.00 49 1014.7
20260503214541 26 74 8.0 16.1 0.00 0.00 0.00 49 1014.7
20260503214016 26 65 8.0 17.7 0.00 0.00 0.00 50 1014.7
20260503213519 26 49 9.7 17.7 0.00 0.00 0.00 48 1014.7
20260503213040 26 35 4.8 14.5 0.00 0.00 0.00 49 1014.6
20260503212517 26 29 6.4 17.7 0.00 0.00 0.00 49 1014.6
20260503212017 26 88 9.7 17.7 0.00 0.00 0.00 50 1014.5
20260503211536 26 101 3.2 16.1 0.00 0.00 0.00 48 1014.6
20260503211016 26 63 4.8 14.5 0.00 0.00 0.00 48 1014.6
20260503210516 26 15 1.6 16.1 0.00 0.00 0.00 49 1014.7
20260503210036 26 30 4.8 16.1 0.00 0.00 0.00 49 1014.7
20260503205517 26 49 6.4 16.1 0.00 0.03 0.00 48 1014.7
20260503205017 27 94 8.0 16.1 0.00 0.03 0.00 48 1014.8
20260503204535 27 84 8.0 16.1 0.00 0.03 0.00 46 1014.8
20260503204016 27 284 0.0 11.3 0.00 0.03 0.00 49 1014.8
20260503203519 26 40 3.2 16.1 0.00 0.03 0.00 50 1014.9
20260503203044 26 65 6.4 17.7 0.00 0.03 0.00 47 1015.1
20260503202517 25 65 8.0 17.7 0.00 0.03 0.00 50 1015.0
20260503202019 26 70 9.7 24.1 0.00 0.03 0.00 48 1015.1
20260503201542 26 67 12.9 24.1 0.00 0.03 0.00 47 1015.2
20260503201019 27 108 3.2 14.5 0.00 0.03 0.00 48 1015.2
20260503200516 25 59 4.8 19.3 0.00 0.03 0.00 52 1015.2
20260503200034 25 61 6.4 19.3 0.00 0.03 0.00 52 1015.2
20260503195518 26 23 6.4 16.1 0.00 0.30 0.00 52 1015.3
20260503195017 26 62 3.2 14.5 0.00 0.30 0.00 52 1015.3
20260503194539 25 72 4.8 19.3 0.00 0.30 0.00 52 1015.5
20260503194016 26 59 11.3 19.3 0.00 0.30 0.00 50 1015.6
20260503193519 26 136 4.8 11.3 0.00 0.30 0.00 51 1015.7
20260503193038 26 95 3.2 12.9 0.00 0.30 0.00 49 1015.9
20260503192517 26 47 4.8 14.5 0.00 0.30 0.00 49 1016.0
20260503192016 26 85 6.4 22.5 0.00 0.30 0.00 51 1016.0
20260503191535 25 99 6.4 22.5 0.00 0.30 0.00 50 1016.1
20260503191017 26 69 4.8 16.1 0.00 0.30 0.00 49 1016.3
20260503190517 26 97 8.0 16.1 0.00 0.30 0.00 53 1016.3
20260503190035 25 28 6.4 14.5 0.00 0.30 0.00 53 1016.4
20260503185516 26 59 6.4 14.5 0.00 0.64 0.00 51 1016.4
20260503185016 26 115 3.2 14.5 0.00 0.64 0.00 49 1016.5
20260503184548 26 76 6.4 14.5 0.00 0.64 0.00 50 1016.6
20260503184017 26 346 4.8 14.5 0.00 0.64 0.00 52 1016.6
20260503183517 25 51 4.8 19.3 0.00 0.64 0.00 56 1016.7
20260503183044 25 101 4.8 19.3 0.00 0.64 0.00 53 1016.7
20260503182516 25 75 6.4 19.3 0.00 0.64 0.00 53 1017.0
20260503182016 25 65 8.0 17.7 0.00 0.64 0.00 54 1017.0
20260503181537 25 90 6.4 20.9 0.00 0.64 0.00 57 1016.9
20260503181017 24 71 4.8 20.9 0.00 0.64 0.00 57 1016.9
20260503180516 26 78 8.0 20.9 0.00 0.64 0.00 55 1017.0
20260503180038 24 87 6.4 19.3 0.00 0.64 0.00 61 1017.1
20260503175515 23 74 4.8 19.3 0.00 0.64 0.00 60 1017.1
20260503175016 25 26 9.7 19.3 0.00 0.64 0.00 56 1017.1
20260503174535 25 272 4.8 17.7 0.00 0.64 0.00 58 1017.2
20260503174023 23 0 3.2 19.3 0.00 0.64 0.00 62 1017.3
20260503173521 24 49 4.8 19.3 0.00 0.64 0.00 60 1017.2
20260503173037 24 84 4.8 20.9 0.00 0.64 0.00 60 1017.3
20260503172519 25 48 6.4 20.9 0.00 0.64 0.00 61 1017.3
20260503172016 23 70 6.4 20.9 0.00 0.64 0.00 61 1017.5
20260503171603 23 82 9.7 19.3 0.00 0.64 0.00 59 1017.4
20260503171016 25 129 8.0 20.9 0.00 0.64 0.00 58 1017.4
20260503170516 24 25 6.4 20.9 0.00 0.64 0.00 61 1017.5
20260503150516 21 42 9.7 20.9 0.00 0.64 0.00 71 1018.0
20260503131019 18 62 4.8 17.7 0.00 0.64 0.00 82 1017.0
20260503130515 18 46 4.8 16.1 0.00 0.64 0.00 83 1016.8
20260503110519 15 0 0.0 3.2 0.00 0.64 0.00 93 1016.0